Location: ???????
(55.4362°N, 38.1183°E)
Time: 17:40:40
(UTC+00:00)

Cosmos 2333 Rocket - Pass Details

Date: 28 October 2021
Orbit: 837 x 865 km, 70.8° (Epoch: 04 December)

Event Time Altitude Azimuth Distance (km) Brightness Sun altitude
Exits shadow 01:00:06 77° 121° (ESE) 891 2.2 -29.1°
Drops below altitude 10° 01:05:29 10° 145° (SE) 2,504 4.8 -28.4°
Sets 01:07:56 0° 146° (SE) 3,438 5.6 -28.1°
